Saint George Island, AK

7:33 AM HDT on September 25, 2016 (GMT -0900)
Saint George

Weather History for PAPB - October, 2013

Change the Weather History Date:

Sunday, October 20, 2013

  Actual Average Record
Temperature  
Mean Temperature 36 °F -  
Max Temperature 41 °F 39 °F 45 °F (2015)
Min Temperature 33 °F 32 °F 25 °F (1998)
Degree Days  
Heating Degree Days 29    
Moisture  
Dew Point 35 °F    
Average Humidity 91    
Maximum Humidity 93    
Minimum Humidity 79    
Precipitation  
Precipitation 0.07 in - - ()
Sea Level Pressure  
Sea Level Pressure 29.47 in    
Wind  
Wind Speed 12 mph (WSW)    
Max Wind Speed 17 mph    
Max Gust Speed 29 mph    
Visibility 10 miles    
Events Rain , Snow    
Averages and records for this station are not official NWS values.
T = Trace of Precipitation, MM = Missing Value Source: NWS Daily Summary

Daily Weather History Graph

Daily Weather History Graph

Search for Another Location

Airport or City:

Trip Planner

Search our weather history database for the weather conditions in past years. The results will help you decide how hot, cold, wet, or windy it might be!

Date:

Astronomy

Oct. 20, 2013 Rise Set
Actual Time 10:02 AM AKDT 8:02 PM AKDT
Civil Twilight 9:23 AM AKDT 8:41 PM AKDT
Nautical Twilight 8:40 AM AKDT 9:25 PM AKDT
Astronomical Twilight 7:56 AM AKDT 10:09 PM AKDT
Moon 8:56 PM AKDT (10/20) 12:16 PM AKDT (10/20)
Length of Visible Light 11h 17m
Length of Day
10h 00m
Waning Gibbous, 96% of the Moon is Illuminated
Oct 20
Waning Gibbous
Oct 26
Last Quarter
Nov 3
New
Nov 9
First Quarter
Nov 17
Full

Hourly Weather History & Observations

Time (AKDT) Temp. Windchill Dew Point Humidity Pressure Visibility Wind Dir Wind Speed Gust Speed Precip Events Conditions
12:53 AM 39.0 °F 30.3 °F 35.1 °F 86% 29.34 in 10.0 mi WSW 16.1 mph - N/A   Overcast
1:13 AM 37.4 °F 30.8 °F 35.6 °F 93% 29.38 in 10.0 mi WSW 9.2 mph - N/A   Overcast
1:25 AM 37.4 °F 30.3 °F 35.6 °F 93% 29.38 in 10.0 mi WSW 10.4 mph - N/A   Overcast
1:40 AM 37.4 °F 27.8 °F 33.8 °F 87% 29.39 in 5.0 mi SW 17.3 mph 28.8 mph 0.02 in Rain Heavy Rain
1:53 AM 37.0 °F 28.9 °F 35.1 °F 93% 29.36 in 9.0 mi SW 12.7 mph 20.7 mph 0.04 in   Overcast
2:00 AM 37.4 °F 29.8 °F 35.6 °F 93% 29.39 in 10.0 mi WSW 11.5 mph - 0.00 in   Mostly Cloudy
2:53 AM 37.9 °F 30.5 °F 35.1 °F 89% 29.37 in 10.0 mi SW 11.5 mph - 0.00 in   Scattered Clouds
3:53 AM 37.9 °F 30.9 °F 35.1 °F 89% 29.37 in 10.0 mi SW 10.4 mph - N/A   Partly Cloudy
4:08 AM 37.4 °F 30.3 °F 35.6 °F 93% 29.41 in 10.0 mi WSW 10.4 mph - N/A   Mostly Cloudy
4:53 AM 37.9 °F 30.9 °F 35.1 °F 89% 29.38 in 10.0 mi WSW 10.4 mph - N/A   Overcast
5:06 AM 37.4 °F 30.3 °F 35.6 °F 93% 29.42 in 10.0 mi WSW 10.4 mph - N/A   Mostly Cloudy
5:31 AM 37.4 °F 31.4 °F 35.6 °F 93% 29.42 in 9.0 mi WSW 8.1 mph - 0.00 in Rain Light Rain
5:43 AM 37.4 °F 29.8 °F 35.6 °F 93% 29.42 in 10.0 mi WSW 11.5 mph - 0.00 in   Scattered Clouds
5:53 AM 37.0 °F 28.9 °F 35.1 °F 93% 29.39 in 10.0 mi SW 12.7 mph - 0.00 in   Partly Cloudy
6:11 AM 37.4 °F 29.8 °F 35.6 °F 93% 29.42 in 10.0 mi West 11.5 mph - 0.00 in   Mostly Cloudy
6:21 AM 37.4 °F 32.1 °F 35.6 °F 93% 29.43 in 9.0 mi West 6.9 mph - 0.00 in   Mostly Cloudy
6:53 AM 37.0 °F 29.3 °F 35.1 °F 93% 29.39 in 10.0 mi WSW 11.5 mph - 0.00 in   Mostly Cloudy
7:00 AM 37.4 °F 28.2 °F 35.6 °F 93% 29.43 in 10.0 mi West 16.1 mph - N/A   Mostly Cloudy
7:33 AM 37.4 °F 29.3 °F 33.8 °F 87% 29.44 in 10.0 mi WSW 12.7 mph - N/A   Mostly Cloudy
7:53 AM 37.0 °F 29.3 °F 34.0 °F 89% 29.41 in 10.0 mi SW 11.5 mph - N/A   Mostly Cloudy
8:37 AM 35.6 °F 27.5 °F 33.8 °F 93% 29.45 in 10.0 mi WNW 11.5 mph - N/A   Mostly Cloudy
8:50 AM 35.6 °F 31.7 °F 33.8 °F 93% 29.45 in 8.0 mi WNW 4.6 mph - N/A   Mostly Cloudy
8:53 AM 35.1 °F 31.0 °F 33.1 °F 92% 29.42 in 8.0 mi WNW 4.6 mph - N/A   Mostly Cloudy
9:10 AM 35.6 °F 29.2 °F 33.8 °F 93% 29.46 in 9.0 mi SW 8.1 mph - 0.01 in Rain Light Rain
9:17 AM 35.6 °F 30.7 °F 33.8 °F 93% 29.46 in 10.0 mi WSW 5.8 mph - 0.01 in   Mostly Cloudy
9:53 AM 37.0 °F 29.3 °F 34.0 °F 89% 29.43 in 10.0 mi West 11.5 mph - 0.01 in   Partly Cloudy
10:53 AM 37.0 °F 28.9 °F 34.0 °F 89% 29.45 in 10.0 mi West 12.7 mph - N/A   Partly Cloudy
11:53 AM 37.9 °F 29.2 °F 35.1 °F 89% 29.46 in 10.0 mi WSW 15.0 mph - N/A   Overcast
12:38 PM 37.4 °F 29.8 °F 35.6 °F 93% 29.51 in 10.0 mi WSW 11.5 mph - 0.00 in Rain Light Rain
12:51 PM 37.4 °F 29.8 °F 35.6 °F 93% 29.51 in 10.0 mi WSW 11.5 mph - 0.00 in   Mostly Cloudy
12:53 PM 37.9 °F 30.5 °F 36.0 °F 93% 29.48 in 10.0 mi WSW 11.5 mph - 0.00 in   Mostly Cloudy
1:25 PM 35.6 °F 27.5 °F 33.8 °F 93% 29.52 in 7.0 mi WNW 11.5 mph - 0.00 in Rain Light Rain
1:39 PM 37.4 °F 30.8 °F 35.6 °F 93% 29.52 in 10.0 mi WSW 9.2 mph - 0.01 in   Overcast
1:53 PM 37.0 °F 29.8 °F 35.1 °F 93% 29.49 in 6.0 mi WSW 10.4 mph - 0.01 in Rain Light Rain
2:53 PM 39.0 °F 31.0 °F 36.0 °F 89% 29.50 in 10.0 mi West 13.8 mph - 0.00 in   Scattered Clouds
3:53 PM 39.9 °F 31.4 °F 35.1 °F 83% 29.50 in 10.0 mi West 16.1 mph - N/A   Scattered Clouds
4:53 PM 39.9 °F 32.5 °F 35.1 °F 83% 29.51 in 10.0 mi West 12.7 mph - N/A   Clear
5:53 PM 39.0 °F 31.0 °F 34.0 °F 82% 29.52 in 10.0 mi West 13.8 mph - 0.00 in   Partly Cloudy
6:53 PM 37.9 °F 30.0 °F 32.0 °F 79% 29.54 in 10.0 mi WSW 12.7 mph 25.3 mph N/A   Mostly Cloudy
7:53 PM 37.0 °F 28.1 °F 33.1 °F 86% 29.55 in 10.0 mi West 15.0 mph - N/A   Partly Cloudy
8:53 PM 36.0 °F 27.5 °F 32.0 °F 86% 29.57 in 10.0 mi WSW 12.7 mph - N/A   Mostly Cloudy
9:17 PM 33.8 °F 24.3 °F 32.0 °F 93% 29.61 in 5.0 mi WSW 13.8 mph - 0.01 in Snow Light Snow
9:39 PM 35.6 °F 27.1 °F 33.8 °F 93% 29.61 in 10.0 mi WSW 12.7 mph - 0.01 in   Scattered Clouds
9:53 PM 36.0 °F 26.3 °F 34.0 °F 93% 29.58 in 10.0 mi West 16.1 mph - 0.01 in   Partly Cloudy
10:53 PM 36.0 °F 28.0 °F 33.1 °F 89% 29.60 in 10.0 mi West 11.5 mph - N/A   Partly Cloudy
11:46 PM 35.6 °F 29.2 °F 33.8 °F 93% 29.65 in 10.0 mi WNW 8.1 mph - N/A   Mostly Cloudy
11:53 PM 36.0 °F 26.7 °F 34.0 °F 93% 29.62 in 10.0 mi WSW 15.0 mph 20.7 mph N/A   Mostly Cloudy